Temp
71 67 65 63 62 61 60 60 61 61 60 62 63 61 62 63 64 64 65 65 66 64 62 63 62 63 61 61 62 60 61 58
67 64 63 60 60 60 59 58 59 59 57 59 61 61 62 62 64 65 65 65 65 64 64 64 63 65 61 62 62 61 56 58
63 61 61 60 59 59 58 59 59 58 58 57 60 60 63 63 63 65 65 64 65 65 65 65 64 63 63 62 62 58 58 58
61 60 58 58 58 58 59 59 61 60 58 58 57 58 60 61 61 62 63 64 65 65 66 66 66 64 62 63 63 63 61 56
64 61 57 57 57 58 59 60 61 60 59 58 58 55 58 59 62 63 63 63 64 65 65 66 66 65 64 63 64 61 62 60
64 61 60 58 57 57 59 59 60 61 60 60 59 58 58 58 60 61 63 62 63 63 63 63 64 63 63 63 60 60 58 58
66 64 59 57 57 57 58 59 60 60 60 60 59 58 59 58 60 60 60 61 61 61 62 62 63 62 61 59 58 59 57 58
63 57 57 56 56 56 58 59 58 60 60 59 59 59 59 59 60 60 61 60 60 58 60 59 60 61 60 60 59 58 58 57
63 60 59 57 57 57 58 58 58 60 59 59 59 57 59 59 60 60 60 60 60 59 60 60 60 60 60 59 58 57 57 57
62 61 59 58 57 57 57 58 58 60 60 59 59 58 57 59 59 60 59 60 60 59 59 59 59 59 59 58 58 57 57 57
64 63 59 59 58 58 57 59 58 60 60 59 59 57 57 57 58 58 59 59 59 58 59 59 58 58 58 58 57 58 57 58
64 64 61 59 59 58 57 57 58 60 61 59 58 57 58 58 59 59 58 59 58 58 58 57 58 58 58 58 58 59 58 59
62 64 61 58 58 57 57 58 58 59 61 60 59 57 58 59 59 59 58 58 59 59 59 57 58 59 58 59 59 60 58 58
63 62 62 59 58 58 58 58 58 59 59 59 59 57 56 57 58 58 58 58 58 59 59 59 59 59 59 59 59 59 57 58
63 60 61 59 59 59 58 58 59 59 60 60 57 56 56 57 57 58 58 58 58 58 59 60 60 59 60 59 58 56 56 50
63 62 60 60 59 59 60 60 59 60 60 61 59 58 57 57 56 57 57 58 59 59 58 59 59 60 58 58 58 56 45 40
57 63 61 63 62 60 60 60 60 60 59 59 60 59 59 57 57 56 56 56 57 54 51 47 43 43 39 42 45 43 41 38
55 55 56 54 64 64 61 60 61 60 59 60 59 59 58 57 57 57 54 47 45 42 40 39 37 38 38 39 38 38 36 35
52 52 51 52 51 63 63 61 60 60 60 60 60 59 59 58 53 46 43 41 39 37 36 36 35 35 36 36 35 34 33 32
MSLP
999.82 1000.63 1001.62 1002.74 1003.29 1004.07 1004.70 1005.35 1005.42 1005.98 1006.60 1007.14 1007.64 1008.11 1008.24 1008.24 1008.34 1008.75 1009.66 1010.47 1011.47 1012.40 1013.35 1013.81 1014.62 1015.57 1016.22 1016.71 1017.48 1017.96 1018.51 1018.96
1000.12 1000.74 1001.79 1002.79 1003.60 1004.02 1004.66 1005.29 1005.53 1005.95 1006.69 1007.27 1007.56 1007.93 1008.26 1008.47 1008.62 1009.05 1009.47 1010.34 1011.18 1011.82 1012.84 1013.44 1014.14 1014.84 1015.59 1016.31 1017.14 1017.79 1018.70 1018.91
1000.28 1001.12 1001.80 1002.47 1003.31 1003.96 1004.53 1005.09 1005.35 1005.82 1006.36 1007.04 1007.48 1007.78 1008.22 1008.50 1008.99 1009.25 1009.59 1010.06 1010.66 1011.33 1012.13 1012.86 1013.62 1014.37 1015.31 1015.95 1016.22 1017.38 1018.31 1018.53
1000.42 1001.31 1001.61 1002.34 1003.21 1003.65 1004.13 1004.66 1004.96 1005.57 1006.28 1006.90 1007.58 1007.96 1008.30 1008.78 1009.16 1009.44 1009.67 1010.07 1010.44 1010.70 1011.25 1012.29 1013.05 1013.85 1014.71 1015.29 1015.83 1016.30 1017.34 1018.46
999.46 1000.75 1001.50 1001.84 1002.69 1003.35 1003.97 1004.32 1004.62 1005.36 1006.12 1006.71 1007.18 1007.67 1008.00 1008.12 1008.36 1008.74 1009.17 1009.64 1010.24 1010.40 1010.96 1011.78 1012.76 1013.34 1014.09 1014.76 1015.26 1015.85 1016.64 1017.85
999.10 999.20 1000.07 1001.14 1002.19 1003.04 1003.74 1004.19 1004.48 1005.11 1005.82 1006.36 1006.77 1007.33 1007.76 1008.00 1008.29 1008.53 1008.63 1009.23 1009.93 1010.34 1010.88 1011.57 1012.46 1013.11 1013.72 1014.51 1015.13 1015.61 1016.30 1017.23
998.01 998.87 1000.01 1001.14 1002.11 1002.96 1003.43 1003.97 1004.30 1004.84 1005.55 1006.10 1006.52 1006.97 1007.34 1007.66 1007.89 1008.05 1007.84 1008.22 1009.30 1010.18 1010.71 1011.30 1012.11 1012.83 1013.43 1014.21 1014.85 1015.52 1016.45 1017.21
997.62 998.72 999.57 1000.79 1001.72 1002.54 1003.10 1003.51 1004.05 1004.59 1005.27 1005.90 1006.30 1006.65 1006.87 1006.99 1007.10 1006.97 1007.25 1007.62 1008.51 1009.84 1010.72 1011.25 1012.03 1012.65 1013.21 1014.16 1015.20 1016.17 1016.90 1017.35
996.42 997.32 998.60 999.96 1001.15 1002.01 1002.48 1003.03 1003.62 1004.26 1004.93 1005.53 1005.84 1006.23 1006.44 1006.58 1006.44 1006.58 1006.79 1007.50 1008.05 1009.33 1010.43 1011.48 1011.88 1012.53 1013.50 1014.46 1015.32 1016.02 1016.56 1017.09
995.79 997.14 998.34 999.41 1000.69 1001.27 1001.87 1002.48 1003.13 1003.77 1004.55 1005.22 1005.59 1005.75 1006.01 1006.28 1006.60 1006.77 1007.09 1007.66 1008.26 1009.32 1010.34 1011.22 1011.64 1012.61 1013.33 1014.33 1015.28 1015.90 1016.50 1017.04
997.00 996.83 997.71 998.89 999.97 1000.73 1001.63 1002.10 1002.64 1003.27 1004.21 1004.98 1005.45 1005.86 1006.12 1006.40 1006.77 1007.17 1007.39 1007.96 1008.57 1009.17 1010.10 1010.93 1011.79 1012.66 1013.62 1014.38 1015.19 1015.71 1016.30 1016.68
997.30 997.86 997.55 998.52 999.60 1000.36 1001.10 1001.80 1002.44 1002.89 1003.85 1004.73 1005.35 1005.90 1006.16 1006.44 1006.69 1007.19 1007.70 1008.19 1008.80 1009.54 1010.28 1010.74 1011.65 1012.49 1013.30 1014.13 1014.78 1015.34 1015.82 1016.26
997.25 997.66 999.12 998.05 998.95 999.97 1000.63 1001.39 1002.11 1002.51 1003.22 1004.19 1005.01 1005.56 1005.94 1006.15 1006.58 1007.05 1007.59 1008.28 1008.97 1009.64 1010.37 1010.93 1011.57 1012.39 1013.10 1013.70 1014.32 1014.83 1015.28 1015.75
997.51 997.30 998.29 999.69 998.56 999.48 1000.05 1000.72 1001.57 1002.01 1002.77 1003.75 1004.56 1005.25 1005.69 1006.07 1006.50 1007.14 1007.75 1008.31 1008.99 1009.72 1010.34 1010.98 1011.53 1012.04 1012.70 1013.37 1013.95 1014.51 1014.93 1015.34
998.03 998.08 998.46 999.13 1000.05 998.87 999.53 1000.23 1000.95 1001.60 1002.36 1003.32 1004.11 1004.89 1005.46 1005.86 1006.31 1006.97 1007.68 1008.29 1008.82 1009.43 1009.93 1010.53 1011.26 1011.97 1012.57 1013.16 1013.79 1014.37 1014.96 1015.91
998.61 998.46 998.21 998.85 999.18 999.83 999.93 999.77 1000.39 1001.20 1001.94 1002.64 1003.54 1004.43 1005.35 1005.99 1006.44 1006.89 1007.55 1008.15 1008.73 1009.40 1009.94 1010.58 1011.22 1011.81 1012.45 1012.97 1013.51 1014.18 1015.51 1016.82
999.62 999.18 998.77 997.74 998.19 998.96 999.98 1000.71 999.99 1000.67 1001.57 1002.38 1003.16 1003.97 1005.00 1005.82 1006.61 1007.03 1007.59 1008.36 1009.08 1009.83 1010.67 1011.64 1012.50 1013.07 1012.98 1013.13 1013.69 1015.09 1016.23 1017.21
1001.06 1001.07 1000.79 999.70 997.69 997.41 998.70 1000.07 1001.09 1000.59 1001.08 1001.94 1002.82 1003.77 1004.73 1005.72 1006.56 1007.28 1007.99 1008.98 1010.05 1011.24 1012.16 1012.80 1013.52 1014.01 1013.93 1013.95 1014.55 1015.93 1017.02 1018.08
1002.06 1001.43 1000.78 1000.22 999.20 997.89 998.21 999.17 1000.35 1001.40 1001.22 1001.41 1002.47 1003.64 1004.59 1005.63 1006.68 1007.91 1008.94 1009.86 1010.75 1011.75 1012.84 1013.62 1014.19 1015.10 1015.05 1015.22 1015.58 1016.69 1017.91 1019.19
Wind_Speed
16 12 13 14 13 11 10 6 8 8 5 5 6 6 3 5 10 10 12 11 15 14 11 12 12 10 9 8 10 4 5 5
8 13 14 14 11 11 10 9 7 7 4 3 4 8 6 5 6 14 16 13 16 15 11 13 13 13 12 12 7 9 3 4
14 15 14 15 14 12 10 9 10 6 4 3 3 3 7 7 6 10 13 15 17 16 15 14 15 11 13 12 12 6 3 6
13 15 15 14 14 14 12 11 11 8 6 5 3 3 2 7 8 8 10 14 16 16 17 15 16 13 11 13 11 14 9 3
17 16 16 17 14 11 11 11 11 9 8 7 6 4 4 4 8 9 11 14 15 15 16 15 15 11 13 12 10 8 8 10
20 22 20 15 14 12 11 10 11 10 9 7 6 5 5 3 5 9 15 12 14 13 14 14 13 10 11 12 9 9 4 5
18 13 14 13 12 11 11 12 12 11 9 8 8 8 8 8 10 9 7 14 11 11 10 12 12 11 11 8 7 7 5 4
16 18 17 16 16 14 12 14 13 12 10 8 9 9 9 12 12 9 14 9 12 11 11 12 10 10 10 9 8 8 7 7
22 21 19 18 17 16 15 15 13 13 12 9 7 7 5 3 5 6 9 9 11 13 11 10 14 14 12 10 8 6 5 4
20 18 17 17 17 17 16 15 13 14 12 10 8 6 5 5 6 7 7 8 9 15 14 11 12 12 12 11 7 7 6 6
9 16 17 16 16 14 14 13 13 14 12 10 8 8 6 6 7 7 9 9 10 12 15 15 13 11 10 10 6 5 7 6
7 8 14 14 14 14 14 13 13 13 13 11 10 8 8 7 8 9 8 10 10 10 11 12 13 11 12 10 9 9 10 10
6 7 6 15 15 15 15 13 12 12 13 12 11 9 8 10 8 9 10 10 11 13 12 11 12 11 10 12 11 10 10 11
9 8 10 10 15 15 15 14 13 12 13 13 12 11 10 10 10 10 10 11 11 11 11 11 11 11 10 10 10 10 8 10
5 3 6 8 8 13 14 14 14 14 13 13 13 11 11 10 10 11 11 10 11 11 12 12 12 11 11 10 10 7 6 7
13 3 4 10 8 6 9 14 15 14 14 15 13 12 10 9 9 9 9 10 10 10 10 10 9 8 6 9 8 5 10 11
15 13 5 9 12 10 8 9 15 16 15 14 10 12 12 11 9 9 8 6 6 7 8 9 8 5 1 9 13 11 12 12
14 13 10 15 8 16 14 8 7 13 14 14 13 12 12 11 10 10 8 10 11 11 11 11 11 10 15 19 21 13 13 12
11 11 12 11 11 7 11 10 8 9 12 15 14 13 12 11 9 12 12 11 12 12 12 12 14 12 19 23 24 17 15 14
Wind_Direction
191 159 146 149 144 149 141 151 139 127 108 117 139 153 150 155 158 146 151 160 163 161 165 161 159 167 169 167 171 163 170 161
157 137 139 135 144 145 152 152 147 133 123 129 144 163 168 176 164 167 164 168 171 166 167 162 168 172 176 174 161 160 152 155
148 148 149 153 155 158 155 156 151 147 133 126 126 128 180 175 175 176 188 172 176 171 170 174 173 177 177 181 166 143 142 170
155 165 159 152 165 167 167 163 153 150 145 122 93 89 116 180 181 189 185 181 178 175 172 177 179 176 178 179 175 171 165 184
171 169 168 169 170 161 163 164 154 151 158 155 151 161 185 189 190 197 193 186 184 177 176 176 186 177 180 180 176 171 148 170
188 182 177 164 155 162 166 162 154 157 166 166 169 184 187 203 207 204 199 186 186 177 177 168 180 176 171 171 158 147 119 153
200 170 147 149 153 160 161 164 160 155 166 168 179 194 200 203 213 214 218 180 172 168 159 161 167 162 155 136 108 116 125 86
173 162 160 161 166 168 165 168 166 162 170 180 182 188 187 196 210 199 181 189 168 159 153 149 156 162 145 144 147 140 149 143
181 171 166 164 169 170 169 168 163 163 166 189 182 167 165 165 168 177 154 162 156 150 149 150 141 135 144 154 149 142 136 146
171 160 165 165 173 175 169 166 161 163 166 178 179 161 155 139 121 133 139 146 157 163 151 144 127 131 134 140 154 159 160 179
198 168 168 170 171 166 165 166 161 157 156 172 176 169 158 145 140 135 142 141 145 149 167 162 151 143 146 157 161 164 189 210
197 232 167 163 164 164 163 162 163 160 164 164 168 176 167 157 155 146 147 146 147 151 155 154 159 161 169 169 181 190 205 221
257 176 209 165 166 169 167 165 169 165 165 169 175 170 173 166 163 155 152 157 160 164 161 164 169 175 171 186 193 196 206 219
338 156 177 228 170 172 170 168 171 166 160 173 175 179 171 173 169 164 158 160 160 167 166 175 181 188 181 193 199 203 203 214
287 144 177 178 236 176 171 173 172 170 169 171 176 179 179 174 165 164 167 165 164 170 178 186 191 194 199 200 201 198 195 86
346 186 174 180 174 208 204 174 170 171 175 183 176 173 170 170 167 162 165 168 173 174 178 188 196 195 201 213 207 179 108 97
7 360 324 183 172 184 201 220 174 170 175 179 173 159 164 164 170 171 166 153 148 104 85 93 70 56 16 117 114 104 103 107
10 357 352 326 211 174 185 188 204 181 171 176 173 165 166 169 163 164 132 103 95 85 82 85 79 66 78 94 100 95 96 94
9 354 347 346 327 203 153 161 176 201 189 173 170 173 169 161 125 110 103 102 101 103 97 93 89 76 88 94 96 95 89 81